Temperature
16 16 16 16 16 16 16 16 16 16 16 15 15 15 15 15 15 15 15 15 15 15 15 15 15 15 15 15 15 15 15 15 15 15 15 15 15 15 15 16 15 15 15
16 16 16 16 15 15 15 15 15 15 15 15 15 15 15 15 15 15 15 15 15 15 15 15 15 15 15 15 15 15 15 15 15 15 15 15 15 15 15 15 15 15 15
15 15 15 15 15 15 15 15 15 15 15 15 15 15 15 15 15 15 15 15 15 15 15 15 15 15 15 15 15 15 15 15 15 15 15 15 15 15 15 15 15 15 15
15 15 15 15 15 15 15 15 15 15 15 15 15 15 15 15 15 15 15 15 15 15 14 14 14 14 14 14 14 14 15 15 15 15 15 14 15 15 15 15 15 15 15
15 15 15 15 15 15 15 15 15 15 15 15 15 15 15 15 15 15 14 14 14 14 14 14 14 14 14 14 14 14 14 14 14 14 14 14 14 14 14 14 14 14 14
15 15 15 15 15 15 15 15 15 15 14 14 14 14 14 14 14 14 14 14 14 14 14 14 14 14 14 14 14 14 14 14 14 14 14 14 14 14 14 14 14 14 14
15 15 15 15 15 15 15 14 14 14 14 14 14 14 14 14 14 14 14 14 14 14 14 14 14 14 14 14 14 14 14 14 14 14 14 13 14 14 14 13 13 13 13
15 15 15 15 15 14 14 14 14 14 14 14 14 14 14 14 14 14 14 14 14 14 14 14 14 14 14 14 14 14 13 13 13 13 13 13 13 13 13 13 13 13 13
15 15 15 15 15 14 14 14 14 14 14 14 14 14 14 14 14 13 13 13 13 13 13 13 13 13 13 13 13 13 13 13 13 13 13 13 13 13 13 13 13 13 13
15 15 15 15 15 14 14 14 14 14 14 14 14 14 14 14 13 13 13 13 13 13 13 13 13 13 13 13 13 13 13 13 13 13 13 13 13 13 13 13 13 13 13
15 15 15 15 14 14 14 14 14 14 14 14 13 13 13 13 13 13 13 13 13 13 13 13 13 13 13 13 13 13 13 13 13 13 13 13 13 13 12 12 12 12 12
15 15 15 14 14 14 14 14 14 14 14 13 13 13 13 13 13 13 13 13 13 13 13 13 13 13 13 13 13 13 13 13 13 13 13 13 13 12 12 12 12 12 12
15 15 15 14 14 14 14 14 14 14 13 13 13 13 13 13 13 13 13 13 12 12 13 13 12 12 12 12 12 12 12 12 12 12 12 12 12 12 12 12 12 12 12
15 15 14 14 14 14 14 14 13 13 13 13 13 13 13 13 13 13 12 12 12 12 12 12 12 12 12 12 12 12 12 12 12 12 12 12 12 12 12 12 12 12 12
14 14 14 14 14 14 14 13 13 13 13 13 13 13 13 13 12 12 12 12 12 12 12 12 12 12 12 12 12 12 12 12 12 12 12 12 12 12 12 12 11 11 11
14 14 14 14 14 13 13 13 13 13 13 13 13 12 12 12 12 12 12 12 12 12 12 12 12 12 12 12 12 12 12 12 11 11 11 11 11 11 11 11 11 11 11
14 14 14 14 13 13 13 13 13 13 13 13 12 12 12 12 12 12 12 12 12 12 12 12 12 11 11 11 11 11 11 11 11 11 11 11 11 11 11 11 11 11 11
14 14 13 13 13 13 13 13 13 13 13 12 12 12 12 12 12 12 12 12 12 12 11 11 11 11 11 11 11 11 11 11 11 11 11 11 11 11 11 11 11 11 11
13 13 13 13 13 13 13 13 12 12 12 12 12 12 12 12 12 12 12 12 12 11 11 11 11 11 11 11 11 11 11 11 11 11 11 11 11 11 11 10 10 10 10
13 13 13 13 13 12 12 12 12 12 12 12 12 12 12 11 11 11 11 11 11 11 11 11 11 11 11 11 11 11 11 11 11 11 10 10 10 10 10 10 10 10 10
13 13 13 12 12 12 12 12 12 12 12 12 11 11 11 11 11 11 11 11 11 11 11 11 11 10 10 11 11 10 10 10 10 10 10 10 10 10 10 10 10 10 10
12 12 12 12 12 12 12 11 11 11 11 11 11 11 11 11 11 11 11 11 10 10 10 10 10 10 10 10 10 10 10 10 10 10 10 10 10 10 10 10 10 10 10
12 12 12 12 11 11 11 11 11 11 11 11 11 11 11 10 10 10 10 10 10 10 10 10 10 10 10 10 10 10 10 10 10 10 10 10 10 10 10 10 10 10 9
12 12 11 11 11 11 11 11 11 11 11 11 10 10 10 10 10 10 10 10 10 10 10 10 10 10 10 10 9 9 9 9 9 9 9 9 9 10 10 9 9 9 9
11 11 11 11 11 11 10 10 10 10 10 10 10 10 10 10 10 10 10 10 10 10 10 10 10 9 9 9 9 9 9 9 9 9 9 9 9 9 9 9 9 9 9
11 11 11 10 10 10 10 10 10 10 10 10 10 10 10 10 9 9 9 9 9 9 9 9 9 9 9 9 9 9 9 8 8 8 8 8 8 8 9 9 9 9 9
Wind_Speed
3 4 4 5 6 6 6 5 5 6 6 6 7 7 6 6 7 7 7 9 9 9 9 9 10 10 10 10 10 10 10 10 9 9 9 9 9 9 9 9 8 8 7
4 3 3 4 4 5 5 5 5 4 4 4 5 6 6 6 6 7 7 7 9 9 8 8 9 9 9 9 9 9 9 9 9 9 9 9 9 9 8 8 8 8 8
5 4 3 3 3 5 6 6 5 5 4 4 4 5 5 5 6 6 6 6 6 8 9 8 8 8 8 8 8 8 8 8 8 8 9 9 9 8 8 8 8 8 8
5 4 3 2 3 4 4 3 3 4 4 4 3 3 4 4 5 6 7 7 6 6 8 8 8 8 7 7 7 8 8 8 8 8 8 9 9 9 8 7 8 8 8
5 5 3 2 4 3 3 3 3 3 3 3 3 3 3 3 4 5 6 6 7 7 7 8 8 8 7 7 7 7 7 7 8 8 8 8 8 8 8 8 8 8 8
4 5 3 3 4 3 2 3 3 3 2 2 3 4 3 3 3 3 4 5 6 6 7 7 7 7 8 7 7 7 7 7 7 8 8 8 7 7 7 7 7 7 7
4 4 3 2 3 2 2 3 2 3 2 2 3 3 3 3 3 3 3 3 4 5 6 6 6 6 6 7 7 7 7 7 6 7 7 6 7 7 7 7 7 7 7
3 4 3 3 2 2 2 2 2 2 1 2 2 2 2 3 3 3 3 2 3 3 4 5 5 5 5 6 6 6 6 6 5 5 5 6 6 6 6 7 7 7 7
3 3 3 3 3 3 3 2 2 3 1 1 2 3 2 2 1 2 2 3 2 2 3 3 4 4 4 4 5 5 4 4 4 4 4 5 5 5 6 6 7 7 7
2 3 3 3 3 3 3 3 2 2 3 1 1 1 2 3 2 1 2 2 2 2 2 2 2 3 4 4 4 4 4 4 3 3 3 4 4 5 5 6 6 6 7
1 2 3 3 3 2 3 3 2 2 2 3 2 2 2 2 2 2 1 2 2 2 2 2 1 2 2 3 3 3 4 4 4 3 3 4 4 4 5 5 5 5 6
1 1 3 3 3 2 3 3 3 3 2 2 2 2 3 2 2 2 2 1 2 2 2 2 1 1 2 2 2 3 3 4 4 4 4 4 4 4 4 4 4 5 5
2 3 3 3 3 3 3 3 3 3 3 3 3 2 2 2 3 3 3 2 1 2 2 2 1 1 1 1 2 3 3 3 4 4 4 4 4 4 4 4 4 4 5
3 3 3 3 3 3 3 3 3 3 3 3 3 2 2 2 2 3 3 3 1 1 2 3 2 2 2 1 2 2 2 3 3 3 3 3 3 3 3 4 4 4 4
2 3 3 3 3 3 3 3 2 3 3 3 3 3 2 2 2 2 2 3 4 2 2 3 2 2 2 2 2 1 2 2 2 2 3 3 3 3 2 2 2 3 3
2 3 3 3 3 3 3 3 3 2 3 2 2 3 2 1 1 2 2 2 2 3 3 2 3 2 2 2 2 2 2 2 2 2 2 2 2 3 2 2 2 2 2
3 3 4 4 3 3 3 4 3 3 3 2 2 3 2 2 2 2 2 2 2 2 3 2 1 1 1 1 1 2 2 2 3 3 3 3 3 3 3 2 3 2 2
3 3 3 3 4 3 4 4 4 4 4 4 3 3 2 2 2 2 2 3 2 3 3 3 1 1 2 2 1 1 2 2 3 4 4 4 4 4 4 3 4 3 3
3 2 3 3 4 4 4 4 4 4 4 4 4 4 3 3 2 2 3 3 2 2 2 2 2 1 1 1 1 1 1 2 3 4 4 5 5 5 5 4 4 4 4
3 3 3 3 3 3 3 4 4 4 4 3 3 4 4 4 4 4 3 3 3 2 2 2 1 1 1 1 1 1 2 1 2 3 3 4 5 5 6 6 5 5 5
3 3 3 2 2 3 3 3 4 4 4 4 3 3 4 5 5 4 3 3 3 3 2 2 2 1 1 1 2 2 2 2 3 2 1 2 3 4 5 6 6 6 6
2 3 3 3 3 3 4 5 4 4 4 4 4 3 4 4 4 5 5 5 5 4 4 3 3 3 4 3 2 2 2 1 2 2 1 2 1 3 4 5 6 7 7
3 3 3 3 3 3 4 4 5 4 4 4 4 3 3 2 3 3 3 3 4 5 6 5 5 5 5 5 4 3 3 3 4 2 1 3 2 3 4 6 7 8 8
3 3 3 3 3 3 3 4 4 4 3 3 4 4 3 3 3 3 3 2 2 3 4 4 5 6 5 5 5 5 4 2 2 2 2 3 2 3 3 5 7 8 8
2 3 2 3 3 3 3 3 3 3 2 3 3 3 3 4 4 3 3 2 2 3 3 4 4 4 5 5 5 3 2 1 2 3 2 2 2 2 2 3 5 7 8
2 2 2 2 2 2 2 3 4 3 2 2 2 2 3 3 3 4 4 3 3 4 2 2 2 3 2 2 4 4 4 3 2 3 3 3 2 1 2 2 2 3 4
Wind_Direction
67 63 62 62 61 65 67 62 63 61 55 53 56 59 54 49 47 44 37 49 58 65 70 72 75 75 74 73 71 69 66 66 65 66 65 63 60 57 55 54 53 52 47
92 82 71 64 62 68 71 74 73 71 59 58 55 53 51 46 47 46 41 43 50 56 61 65 67 72 75 74 71 69 66 64 65 64 63 61 58 56 54 51 48 47 44
110 100 87 72 63 75 78 78 72 71 65 58 52 48 50 43 45 44 42 41 41 47 54 59 61 66 68 69 68 66 64 64 66 64 63 59 55 52 49 48 46 42 40
125 109 98 86 84 84 84 81 71 73 62 55 52 42 42 41 43 44 45 41 42 40 42 50 56 59 61 64 64 62 64 66 66 65 63 58 53 47 43 45 43 39 38
135 125 114 103 97 85 73 82 66 82 83 67 66 50 37 38 34 47 42 41 44 45 42 41 45 49 54 56 58 59 64 66 66 66 61 56 50 43 42 42 40 38 37
140 133 125 116 107 94 77 78 75 66 84 81 76 54 34 34 39 41 39 40 44 46 46 45 40 38 45 48 50 52 58 63 64 63 59 55 49 43 41 39 37 35 33
143 141 132 123 114 118 121 115 102 79 60 70 77 45 20 30 47 41 38 41 36 41 49 48 46 43 37 40 42 48 50 54 61 62 58 54 49 43 40 37 36 36 33
153 152 149 154 141 126 116 117 111 97 69 71 105 91 26 358 11 25 31 47 31 37 41 42 48 45 40 37 38 45 47 46 53 56 55 55 47 42 38 35 35 32 31
168 159 155 151 154 153 163 163 143 131 132 48 83 131 135 221 314 348 18 28 20 32 25 30 41 38 36 34 31 32 39 36 43 48 53 52 43 38 37 35 36 33 34
159 161 158 156 161 163 170 181 159 148 140 143 80 75 132 155 148 333 343 360 10 24 11 17 27 28 31 30 28 28 36 34 38 43 45 43 40 38 36 35 34 34 35
147 158 160 152 165 172 177 176 159 159 154 156 156 139 107 81 107 146 251 324 349 349 351 354 357 2 14 24 21 24 38 41 40 40 35 32 30 28 26 33 35 35 36
197 183 171 166 171 175 181 185 174 168 170 161 158 154 153 156 170 159 183 238 286 307 328 330 323 319 343 1 360 23 39 45 39 40 38 32 29 25 22 23 30 33 34
219 214 192 183 181 188 180 169 169 174 169 168 174 179 181 183 162 157 157 186 248 299 317 305 279 285 306 339 341 14 27 36 41 39 35 30 28 27 31 32 32 30 32
221 207 194 190 188 182 177 168 176 187 175 182 183 172 177 199 173 167 164 155 165 308 307 279 289 257 262 271 314 350 7 25 33 37 35 23 15 13 19 36 35 30 24
212 191 192 192 190 182 178 171 179 192 178 189 192 182 186 210 188 185 167 162 163 200 261 264 265 270 249 250 272 302 317 343 7 20 18 3 358 358 4 13 16 20 13
207 188 190 195 195 190 183 176 178 179 165 182 182 177 197 201 181 172 174 175 170 175 220 247 243 257 252 258 260 271 282 300 312 325 332 327 327 336 335 333 323 329 333
204 201 199 192 195 197 187 178 184 172 175 184 182 183 208 191 176 177 170 169 171 163 208 259 258 264 247 260 298 284 286 293 295 291 294 291 301 307 305 309 307 299 306
209 203 196 192 196 198 191 185 192 183 181 189 196 189 210 190 187 186 180 187 190 186 188 229 257 257 248 235 247 266 284 282 278 281 280 278 282 292 291 284 282 271 273
202 189 191 198 200 199 194 196 191 187 189 196 196 197 207 186 204 206 199 202 202 193 180 190 240 248 252 217 227 274 285 295 279 275 273 271 272 280 283 275 270 260 257
185 190 201 205 200 193 190 195 189 187 190 199 203 206 207 199 208 209 208 207 198 186 174 175 224 255 252 245 163 235 282 285 281 288 273 269 270 275 276 268 260 253 252
194 184 184 192 193 189 197 189 190 191 192 202 212 220 222 215 215 208 206 201 190 189 183 188 212 238 245 231 229 220 235 275 277 263 275 281 278 277 275 267 259 251 248
181 162 176 186 201 212 201 187 181 188 192 199 215 234 235 223 229 227 223 207 192 189 197 200 215 225 235 229 223 217 204 229 271 255 220 276 268 268 270 259 255 251 248
175 180 189 191 212 223 206 195 190 183 193 204 212 222 232 230 215 216 225 218 218 216 206 201 211 226 226 219 205 213 218 222 237 237 192 264 270 266 274 266 258 249 245
179 195 195 197 205 226 205 200 190 181 191 209 215 215 216 232 219 200 197 206 232 238 228 220 221 231 231 221 210 209 212 230 259 250 192 236 256 261 282 272 261 249 243
183 189 184 183 193 230 210 187 171 178 198 225 230 220 215 224 230 191 172 196 240 262 251 241 251 251 243 226 201 164 165 192 262 255 207 213 241 268 280 280 274 257 247
175 167 165 172 181 215 206 178 157 168 190 220 239 240 234 231 229 193 183 193 226 252 256 265 289 292 283 221 196 197 193 201 239 251 216 205 224 218 277 277 290 287 262
Height
1538 1538 1539 1539 1539 1539 1539 1540 1540 1540 1540 1540 1541 1541 1541 1541 1541 1541 1541 1541 1541 1541 1541 1541 1541 1540 1540 1540 1540 1540 1539 1539 1539 1539 1539 1539 1539 1539 1539 1539 1539 1539 1539
1539 1540 1540 1540 1540 1540 1540 1541 1541 1541 1541 1541 1542 1542 1542 1542 1542 1542 1542 1542 1542 1542 1542 1542 1542 1541 1541 1541 1541 1540 1540 1540 1540 1540 1540 1540 1540 1540 1540 1540 1539 1539 1539
1540 1541 1541 1541 1541 1541 1541 1541 1541 1542 1542 1542 1543 1543 1543 1543 1543 1543 1543 1543 1543 1543 1543 1543 1542 1542 1542 1542 1541 1541 1541 1540 1540 1540 1540 1540 1540 1540 1540 1540 1539 1539 1539
1541 1541 1541 1541 1542 1542 1542 1542 1542 1542 1542 1543 1543 1543 1543 1544 1544 1544 1544 1544 1544 1543 1543 1543 1543 1543 1543 1542 1542 1542 1541 1541 1541 1540 1540 1540 1540 1540 1540 1540 1539 1539 1539
1542 1542 1542 1542 1542 1542 1542 1542 1542 1542 1542 1543 1543 1543 1544 1544 1544 1545 1544 1544 1544 1544 1544 1544 1544 1543 1543 1543 1542 1542 1542 1541 1541 1541 1540 1540 1540 1540 1540 1540 1539 1539 1538
1542 1542 1542 1542 1542 1542 1542 1542 1543 1543 1543 1543 1543 1543 1544 1544 1544 1545 1545 1544 1544 1544 1544 1544 1544 1544 1543 1543 1543 1542 1542 1542 1541 1541 1540 1540 1540 1540 1540 1539 1539 1538 1538
1542 1542 1542 1542 1542 1542 1542 1542 1542 1543 1543 1543 1543 1543 1544 1544 1544 1545 1545 1544 1544 1544 1544 1544 1544 1544 1543 1543 1543 1543 1542 1542 1541 1541 1541 1540 1540 1540 1540 1539 1539 1538 1538
1541 1542 1542 1542 1542 1542 1542 1542 1542 1542 1542 1543 1543 1543 1544 1545 1544 1544 1544 1544 1544 1544 1544 1544 1544 1544 1543 1543 1543 1543 1542 1542 1542 1541 1540 1540 1540 1540 1539 1539 1538 1538 1537
1540 1541 1541 1542 1541 1541 1541 1542 1542 1542 1542 1542 1543 1543 1543 1543 1544 1544 1544 1544 1544 1544 1544 1544 1544 1544 1543 1543 1543 1542 1542 1542 1541 1541 1540 1540 1540 1539 1539 1538 1538 1537 1537
1539 1540 1540 1541 1541 1541 1541 1541 1541 1541 1541 1541 1542 1542 1543 1543 1543 1543 1544 1544 1544 1544 1544 1543 1543 1543 1543 1543 1542 1542 1542 1541 1541 1540 1540 1539 1539 1539 1538 1538 1537 1537 1536
1537 1538 1539 1539 1539 1540 1540 1540 1540 1540 1541 1541 1541 1541 1541 1542 1542 1542 1542 1543 1543 1543 1543 1543 1542 1542 1542 1542 1541 1541 1541 1541 1540 1540 1539 1539 1539 1538 1538 1537 1537 1536 1536
1535 1536 1537 1537 1537 1538 1538 1538 1539 1539 1539 1540 1540 1540 1540 1541 1541 1541 1541 1541 1541 1542 1542 1542 1541 1541 1541 1541 1541 1540 1540 1540 1539 1539 1539 1538 1538 1537 1537 1536 1536 1535 1535
1533 1533 1534 1535 1535 1536 1536 1536 1537 1537 1538 1538 1538 1539 1539 1539 1539 1540 1540 1539 1539 1540 1540 1540 1540 1540 1540 1540 1540 1539 1539 1538 1538 1538 1538 1537 1537 1537 1536 1535 1535 1534 1534
1530 1531 1531 1532 1533 1533 1534 1534 1535 1535 1536 1536 1537 1537 1537 1538 1538 1538 1538 1538 1538 1538 1538 1538 1539 1539 1539 1539 1538 1538 1538 1537 1537 1537 1537 1536 1536 1535 1535 1535 1534 1534 1533
1528 1528 1529 1529 1530 1531 1531 1532 1532 1533 1533 1534 1534 1535 1535 1536 1536 1536 1536 1537 1537 1536 1536 1536 1537 1537 1537 1537 1537 1537 1537 1536 1536 1536 1535 1535 1535 1534 1534 1533 1533 1532 1532
1525 1526 1526 1527 1527 1528 1529 1529 1530 1530 1531 1531 1532 1532 1533 1533 1533 1534 1534 1534 1535 1535 1534 1534 1535 1535 1535 1535 1535 1535 1535 1535 1534 1534 1534 1533 1533 1533 1532 1532 1531 1531 1530
1522 1522 1523 1524 1524 1525 1526 1526 1527 1527 1528 1528 1529 1529 1530 1531 1531 1531 1532 1532 1532 1532 1532 1532 1533 1533 1533 1533 1533 1533 1533 1533 1533 1532 1532 1532 1531 1531 1530 1530 1530 1529 1529
1518 1519 1520 1520 1521 1522 1522 1523 1523 1524 1525 1525 1526 1526 1527 1528 1528 1529 1529 1529 1529 1529 1530 1529 1530 1530 1530 1530 1531 1531 1531 1530 1530 1530 1530 1530 1529 1529 1528 1528 1528 1527 1527
1515 1515 1516 1517 1517 1518 1519 1519 1520 1521 1521 1522 1523 1523 1524 1524 1525 1525 1526 1526 1526 1527 1527 1527 1526 1527 1527 1527 1527 1528 1528 1528 1528 1527 1527 1527 1527 1526 1526 1526 1526 1525 1525
1511 1511 1512 1513 1514 1514 1515 1516 1516 1517 1518 1518 1519 1520 1520 1521 1521 1522 1522 1523 1523 1523 1524 1524 1524 1524 1524 1524 1524 1524 1524 1525 1525 1525 1524 1524 1524 1524 1523 1523 1523 1523 1523
1507 1508 1508 1509 1510 1510 1511 1512 1512 1513 1514 1515 1515 1516 1517 1517 1518 1519 1519 1519 1520 1520 1520 1520 1520 1520 1520 1521 1521 1521 1521 1521 1521 1521 1521 1521 1521 1520 1520 1520 1520 1520 1520
1504 1504 1505 1505 1506 1506 1507 1508 1509 1510 1510 1511 1512 1513 1513 1514 1514 1515 1515 1516 1517 1517 1516 1517 1517 1517 1517 1517 1518 1518 1517 1517 1517 1518 1517 1517 1517 1517 1517 1517 1517 1516 1516
1500 1501 1501 1502 1502 1503 1504 1505 1506 1506 1507 1507 1508 1509 1510 1510 1511 1511 1512 1512 1513 1513 1514 1514 1514 1513 1514 1514 1514 1514 1514 1514 1514 1514 1514 1513 1514 1513 1514 1513 1513 1513 1513
1497 1497 1497 1498 1499 1500 1501 1502 1502 1503 1503 1504 1505 1505 1506 1507 1507 1508 1508 1508 1509 1509 1510 1510 1510 1510 1511 1511 1511 1511 1510 1510 1510 1510 1510 1510 1509 1509 1510 1510 1510 1510 1509
1493 1494 1494 1495 1496 1497 1498 1498 1499 1499 1500 1500 1501 1502 1502 1503 1504 1504 1504 1504 1505 1505 1506 1506 1506 1506 1507 1507 1507 1507 1506 1506 1505 1506 1506 1506 1505 1505 1506 1506 1506 1506 1506
1490 1491 1492 1492 1493 1493 1494 1495 1495 1496 1496 1497 1497 1498 1499 1499 1500 1500 1501 1501 1501 1501 1502 1502 1502 1503 1503 1503 1503 1503 1502 1502 1501 1501 1501 1502 1501 1502 1501 1501 1502 1502 1502